Radiation Dose at Monitoring Post of Fukushima Daini Nuclear Power Station
Date,Time,MP-1(microSv/h),MP-2(microSv/h),MP-3(microSv/h),MP-4(microSv/h),MP-5(microSv/h),MP-6(microSv/h),MP-7(microSv/h),Wind Direction,Wind Velocity(m/s),Rain
2015/03/20,00:00,0.532,0.326,0.548,0.505,0.548,0.247,0.217,north,6.2,No
2015/03/20,00:10,0.532,0.327,0.545,0.506,0.547,0.246,0.218,north,6.1,No
2015/03/20,00:20,0.530,0.326,0.548,0.506,0.545,0.246,0.217,north,5.8,No
2015/03/20,00:30,0.533,0.326,0.548,0.506,0.547,0.248,0.216,north,5.0,No
2015/03/20,00:40,0.529,0.326,0.546,0.507,0.547,0.247,0.217,north,3.9,No
2015/03/20,00:50,0.531,0.326,0.547,0.506,0.544,0.248,0.218,north,4.5,No
2015/03/20,01:00,0.530,0.325,0.547,0.505,0.547,0.247,0.217,north,4.5,No
2015/03/20,01:10,0.529,0.326,0.547,0.508,0.546,0.247,0.217,north,4.4,No
2015/03/20,01:20,0.531,0.327,0.549,0.505,0.544,0.247,0.217,north,4.8,No
2015/03/20,01:30,0.530,0.327,0.545,0.506,0.548,0.247,0.216,north,4.5,No
2015/03/20,01:40,0.531,0.326,0.546,0.508,0.546,0.247,0.218,north,3.9,No
2015/03/20,01:50,0.534,0.329,0.550,0.505,0.546,0.249,0.217,north-northwest,3.9,No
2015/03/20,02:00,0.529,0.326,0.548,0.508,0.544,0.247,0.218,north-northwest,3.9,No
2015/03/20,02:10,0.531,0.327,0.548,0.506,0.546,0.247,0.217,north,3.4,No
2015/03/20,02:20,0.530,0.327,0.549,0.505,0.548,0.247,0.217,north,2.5,No
2015/03/20,02:30,0.530,0.326,0.546,0.507,0.546,0.246,0.215,north,2.6,No
2015/03/20,02:40,0.533,0.327,0.548,0.506,0.542,0.247,0.217,north,3.3,No
2015/03/20,02:50,0.531,0.326,0.549,0.506,0.548,0.246,0.218,north,3.6,No
2015/03/20,03:00,0.532,0.326,0.547,0.509,0.546,0.247,0.216,north-northeast,2.5,No
2015/03/20,03:10,0.531,0.325,0.549,0.505,0.546,0.246,0.217,northeast,4.0,No
2015/03/20,03:20,0.532,0.326,0.545,0.507,0.548,0.246,0.216,northeast,4.0,No
2015/03/20,03:30,0.534,0.326,0.545,0.507,0.544,0.247,0.218,north-northeast,4.5,No
2015/03/20,03:40,0.532,0.327,0.549,0.507,0.546,0.246,0.217,north,4.3,No
2015/03/20,03:50,0.531,0.327,0.547,0.509,0.547,0.248,0.218,north,4.8,No
2015/03/20,04:00,0.534,0.326,0.549,0.506,0.546,0.249,0.217,north,5.3,No
2015/03/20,04:10,0.531,0.327,0.547,0.506,0.547,0.247,0.218,north,5.9,No
2015/03/20,04:20,0.535,0.327,0.547,0.510,0.548,0.248,0.216,north,4.0,No
2015/03/20,04:30,0.531,0.327,0.549,0.507,0.546,0.249,0.218,north,3.5,No
2015/03/20,04:40,0.529,0.327,0.547,0.508,0.548,0.247,0.216,north-northeast,3.9,No
2015/03/20,04:50,0.533,0.327,0.548,0.508,0.548,0.248,0.218,north-northeast,4.5,No
2015/03/20,05:00,0.531,0.326,0.551,0.506,0.546,0.247,0.216,north,3.9,No
2015/03/20,05:10,0.530,0.328,0.548,0.506,0.547,0.248,0.218,north,3.6,No
2015/03/20,05:20,0.533,0.326,0.548,0.508,0.547,0.247,0.218,north-northwest,2.4,No
2015/03/20,05:30,0.530,0.326,0.550,0.506,0.546,0.249,0.218,north,3.1,No
2015/03/20,05:40,0.532,0.327,0.549,0.507,0.546,0.247,0.218,north,3.3,No
2015/03/20,05:50,0.532,0.327,0.547,0.508,0.547,0.248,0.219,north,4.2,No
2015/03/20,06:00,0.529,0.327,0.549,0.505,0.544,0.247,0.217,north,4.0,No
2015/03/20,06:10,0.534,0.329,0.547,0.507,0.548,0.247,0.218,north,5.1,No
2015/03/20,06:20,0.532,0.328,0.548,0.507,0.546,0.247,0.217,north,4.3,No
2015/03/20,06:30,0.530,0.327,0.550,0.506,0.547,0.248,0.218,north,4.3,No
2015/03/20,06:40,0.534,0.327,0.548,0.508,0.548,0.247,0.218,north-northwest,3.7,No
2015/03/20,06:50,0.531,0.326,0.549,0.507,0.547,0.247,0.218,north-northwest,3.5,No
2015/03/20,07:00,0.532,0.327,0.548,0.506,0.544,0.248,0.217,north-northwest,3.9,No
2015/03/20,07:10,0.532,0.327,0.548,0.508,0.545,0.246,0.217,north,3.9,No
2015/03/20,07:20,0.531,0.325,0.549,0.508,0.546,0.248,0.218,north,2.3,No
2015/03/20,07:30,0.534,0.327,0.549,0.506,0.546,0.247,0.219,north-northeast,1.6,No
2015/03/20,07:40,0.532,0.327,0.549,0.509,0.549,0.248,0.217,north-northeast,2.0,No
2015/03/20,07:50,0.532,0.327,0.549,0.506,0.547,0.246,0.218,north-northeast,2.8,No
2015/03/20,08:00,0.535,0.327,0.545,0.509,0.546,0.248,0.217,north-northeast,4.0,No
2015/03/20,08:10,0.530,0.326,0.549,0.505,0.547,0.248,0.218,northeast,4.0,No
2015/03/20,08:20,0.532,0.327,0.551,0.506,0.547,0.248,0.217,north-northeast,5.2,No
2015/03/20,08:30,0.533,0.328,0.549,0.510,0.549,0.248,0.217,north,5.9,No
2015/03/20,08:40,0.530,0.327,0.550,0.508,0.547,0.248,0.218,north-northeast,5.5,No
2015/03/20,08:50,0.535,0.324,0.551,0.509,0.548,0.247,0.218,north-northeast,5.5,No
2015/03/20,09:00,0.532,0.328,0.547,0.511,0.549,0.248,0.217,north-northeast,5.6,No
2015/03/20,09:10,0.533,0.326,0.552,0.507,0.547,0.248,0.218,north-northeast,4.7,No
2015/03/20,09:20,0.535,0.327,0.549,0.509,0.549,0.248,0.219,north-northeast,4.7,No
2015/03/20,09:30,0.532,0.328,0.549,0.506,0.547,0.249,0.217,north-northeast,3.6,No
2015/03/20,09:40,0.535,0.326,0.550,0.509,0.546,0.248,0.219,north-northeast,3.3,No
2015/03/20,09:50,0.531,0.327,0.548,0.509,0.551,0.248,0.219,north-northeast,2.8,No
2015/03/20,10:00,0.533,0.328,0.550,0.508,0.548,0.247,0.218,northeast,2.4,No
2015/03/20,10:10,0.535,0.326,0.548,0.510,0.550,0.249,0.218,north-northeast,2.8,No
2015/03/20,10:20,0.532,0.327,0.548,0.506,0.549,0.248,0.219,north-northeast,1.9,No
2015/03/20,10:30,0.535,0.326,0.551,0.509,0.551,0.247,0.218,north,1.9,No
2015/03/20,10:40,0.531,0.328,0.548,0.509,0.550,0.249,0.219,north,2.4,No
2015/03/20,10:50,0.533,0.326,0.553,0.507,0.548,0.249,0.219,north-northeast,3.6,No
2015/03/20,11:00,0.533,0.328,0.547,0.510,0.551,0.249,0.218,north-northeast,2.5,No
2015/03/20,11:10,0.534,0.327,0.551,0.506,0.548,0.247,0.219,northeast,3.4,No
2015/03/20,11:20,0.533,0.327,0.547,0.510,0.549,0.248,0.220,northeast,4.5,No
2015/03/20,11:30,0.530,0.328,0.550,0.508,0.551,0.249,0.220,northeast,3.1,No
2015/03/20,11:40,0.534,0.327,0.549,0.507,0.550,0.249,0.218,east-northeast,3.4,No
2015/03/20,11:50,0.531,0.329,0.551,0.510,0.549,0.249,0.219,east-northeast,3.6,No
2015/03/20,12:00,0.535,0.327,0.548,0.512,0.551,0.250,0.220,northeast,3.6,No
2015/03/20,12:10,0.530,0.328,0.551,0.511,0.547,0.249,0.220,northeast,3.1,No
2015/03/20,12:20,0.536,0.328,0.548,0.511,0.551,0.249,0.220,north,2.7,No
2015/03/20,12:30,0.534,0.329,0.551,0.510,0.550,0.249,0.220,north-northeast,3.0,No
2015/03/20,12:40,0.535,0.326,0.551,0.513,0.552,0.249,0.218,north-northeast,2.4,No
2015/03/20,12:50,0.532,0.327,0.551,0.510,0.548,0.250,0.220,northeast,2.1,No
2015/03/20,13:00,0.535,0.328,0.552,0.515,0.553,0.249,0.220,north-northeast,1.8,No
2015/03/20,13:10,0.535,0.327,0.552,0.510,0.545,0.248,0.219,northeast,1.9,No
2015/03/20,13:20,0.533,0.330,0.553,0.513,0.553,0.248,0.220,north-northeast,1.9,No
2015/03/20,13:30,0.537,0.328,0.551,0.510,0.548,0.250,0.220,northeast,2.4,No
2015/03/20,13:40,0.534,0.329,0.555,0.513,0.556,0.249,0.220,northeast,1.7,No
2015/03/20,13:50,0.536,0.330,0.551,0.512,0.549,0.250,0.221,northeast,1.9,No
2015/03/20,14:00,0.532,0.328,0.555,0.512,0.553,0.249,0.220,north,1.4,No
2015/03/20,14:10,0.535,0.330,0.552,0.511,0.549,0.248,0.220,north-northeast,2.0,No
2015/03/20,14:20,0.536,0.327,0.555,0.511,0.553,0.248,0.220,northeast,1.4,No
2015/03/20,14:30,0.534,0.328,0.552,0.513,0.550,0.250,0.221,northeast,1.7,No
2015/03/20,14:40,0.538,0.327,0.552,0.512,0.553,0.250,0.221,north-northeast,3.0,No
2015/03/20,14:50,0.533,0.328,0.552,0.513,0.550,0.249,0.221,north-northeast,1.1,No
2015/03/20,15:00,0.536,0.329,0.550,0.510,0.553,0.250,0.220,north-northwest,1.1,No
2015/03/20,15:10,0.533,0.328,0.556,0.515,0.553,0.250,0.220,north-northwest,1.1,No
2015/03/20,15:20,0.535,0.328,0.552,0.512,0.551,0.250,0.220,-,CALM,No
2015/03/20,15:30,0.536,0.328,0.557,0.512,0.555,0.250,0.220,north,0.8,No
2015/03/20,15:40,0.535,0.329,0.552,0.513,0.550,0.250,0.220,northeast,0.6,No
2015/03/20,15:50,0.538,0.328,0.555,0.512,0.554,0.249,0.221,-,CALM,No
2015/03/20,16:00,0.534,0.328,0.555,0.516,0.551,0.248,0.220,north-northeast,0.8,No
2015/03/20,16:10,0.538,0.330,0.552,0.512,0.552,0.249,0.218,-,CALM,No
2015/03/20,16:20,0.535,0.329,0.556,0.513,0.552,0.250,0.220,-,CALM,No
2015/03/20,16:30,0.535,0.331,0.552,0.514,0.550,0.250,0.219,west-southwest,0.6,No
2015/03/20,16:40,0.538,0.329,0.554,0.512,0.551,0.250,0.218,-,CALM,No
2015/03/20,16:50,0.534,0.327,0.554,0.514,0.551,0.250,0.220,-,CALM,No
2015/03/20,17:00,0.538,0.329,0.553,0.512,0.551,0.251,0.220,-,CALM,No
2015/03/20,17:10,0.536,0.329,0.556,0.513,0.551,0.248,0.220,-,CALM,No
2015/03/20,17:20,0.534,0.328,0.554,0.514,0.550,0.250,0.220,-,CALM,No
2015/03/20,17:30,0.538,0.329,0.555,0.513,0.551,0.250,0.221,northeast,0.5,No
2015/03/20,17:40,0.533,0.329,0.555,0.514,0.550,0.249,0.221,north-northeast,0.7,No
2015/03/20,17:50,0.534,0.327,0.552,0.513,0.549,0.249,0.221,north-northeast,0.9,No
2015/03/20,18:00,0.538,0.330,0.553,0.512,0.550,0.250,0.220,north-northeast,0.6,No
2015/03/20,18:10,0.532,0.330,0.553,0.513,0.551,0.250,0.222,north,0.5,No
2015/03/20,18:20,0.536,0.328,0.552,0.514,0.548,0.250,0.221,-,CALM,No
2015/03/20,18:30,0.535,0.330,0.555,0.513,0.551,0.250,0.221,-,CALM,No
2015/03/20,18:40,0.533,0.330,0.554,0.514,0.548,0.250,0.220,north-northeast,0.8,No
2015/03/20,18:50,0.537,0.329,0.553,0.513,0.548,0.250,0.221,north-northwest,0.5,No
2015/03/20,19:00,0.533,0.330,0.553,0.511,0.551,0.250,0.221,-,CALM,No
2015/03/20,19:10,0.535,0.328,0.552,0.513,0.551,0.249,0.221,-,CALM,No
2015/03/20,19:20,0.534,0.329,0.552,0.512,0.549,0.250,0.220,-,CALM,No
2015/03/20,19:30,0.534,0.329,0.557,0.512,0.550,0.251,0.221,-,CALM,No
2015/03/20,19:40,0.535,0.330,0.554,0.513,0.551,0.250,0.221,-,CALM,No
2015/03/20,19:50,0.535,0.328,0.553,0.512,0.549,0.250,0.221,-,CALM,No
2015/03/20,20:00,0.532,0.331,0.556,0.512,0.552,0.250,0.221,-,CALM,No
2015/03/20,20:10,0.537,0.329,0.553,0.514,0.551,0.251,0.221,-,CALM,No
2015/03/20,20:20,0.536,0.328,0.554,0.514,0.550,0.250,0.222,-,CALM,No
2015/03/20,20:30,0.536,0.330,0.555,0.513,0.551,0.250,0.221,south-southwest,1.6,No
2015/03/20,20:40,0.537,0.329,0.554,0.512,0.550,0.250,0.221,-,CALM,No
2015/03/20,20:50,0.537,0.329,0.553,0.515,0.548,0.251,0.221,-,CALM,No
2015/03/20,21:00,0.535,0.329,0.555,0.514,0.554,0.250,0.219,north,0.8,No
2015/03/20,21:10,0.539,0.330,0.554,0.514,0.552,0.249,0.223,north,1.7,No
2015/03/20,21:20,0.535,0.329,0.553,0.514,0.548,0.250,0.221,northeast,1.1,No
2015/03/20,21:30,0.537,0.329,0.554,0.513,0.551,0.250,0.221,north,1.4,No
2015/03/20,21:40,0.537,0.330,0.554,0.513,0.550,0.250,0.223,north,1.3,No
2015/03/20,21:50,0.535,0.329,0.554,0.515,0.551,0.250,0.221,north,1.2,No
2015/03/20,22:00,0.536,0.330,0.555,0.512,0.550,0.250,0.222,north-northwest,1.0,No
2015/03/20,22:10,0.537,0.329,0.554,0.511,0.550,0.250,0.222,north-northeast,1.2,No
2015/03/20,22:20,0.536,0.330,0.554,0.512,0.551,0.251,0.222,north,1.1,No
2015/03/20,22:30,0.534,0.330,0.553,0.514,0.552,0.251,0.223,north-northwest,1.7,No
2015/03/20,22:40,0.535,0.329,0.555,0.512,0.551,0.250,0.222,north,1.3,No
2015/03/20,22:50,0.536,0.329,0.556,0.513,0.551,0.250,0.223,north,1.7,No
2015/03/20,23:00,0.537,0.329,0.554,0.513,0.550,0.250,0.220,north,1.9,No
2015/03/20,23:10,0.536,0.330,0.555,0.514,0.548,0.250,0.223,north,2.1,No
2015/03/20,23:20,0.536,0.329,0.557,0.512,0.549,0.251,0.222,north-northeast,3.0,No
2015/03/20,23:30,0.535,0.330,0.554,0.514,0.552,0.251,0.222,north-northeast,2.8,No
2015/03/20,23:40,0.536,0.330,0.555,0.515,0.549,0.250,0.222,north,1.9,No
2015/03/20,23:50,0.536,0.330,0.556,0.513,0.549,0.251,0.221,northwest,2.9,No
